Vertical_Velocity
-0 -12 -4 4 -6 3 0 -5 -5 8 9 -10 -0 -0 6 1 -1 3 4 -0 1 -1 -0 -4 0 0 0 1 -0 -1 2 -0 -0 0 3 -2 -2 -0 -1 0 -2 -1 2 -3
-3 1 8 -5 5 1 3 -1 5 0 8 -10 -2 3 4 7 -0 0 -1 4 3 -0 -1 -3 1 -2 2 1 1 0 -0 -1 -2 -0 -1 3 2 -1 -2 -1 1 -0 -4 -2
-13 10 -2 5 4 4 4 2 4 -11 5 -4 -1 -0 -1 1 2 -4 2 -1 2 2 2 -1 -3 1 -0 -3 -0 2 2 1 0 -0 2 0 -1 -1 -2 2 -2 -2 -1 1
-11 15 3 -7 7 2 1 6 -3 0 -0 1 -10 -26 -5 -2 3 -1 -4 -4 2 0 2 -0 4 3 1 -3 0 0 2 1 1 -1 -0 -0 -0 -0 1 -2 -2 -0 0 -1
7 -1 6 -15 3 -2 7 -1 3 1 2 -4 16 -38 42 -2 8 -1 -4 0 1 2 -0 -0 7 -2 1 -1 -1 -1 1 1 0 -1 -1 0 -1 0 0 -1 -0 1 -1 2
4 0 -8 7 4 3 9 -1 -3 4 3 -30 36 3 9 2 -6 18 -2 -6 -1 2 0 -1 4 0 1 1 -1 0 0 -0 -0 -1 0 0 -1 0 0 -1 0 1 0 -0
3 -4 5 -2 -5 6 4 -2 -7 -22 -8 -17 18 -11 -5 1 -3 9 -7 -1 1 3 -0 -0 2 1 1 -1 1 1 -1 -0 0 -0 -0 -1 -0 1 -1 0 2 1 -1 0
10 -32 47 36 -22 4 -16 8 -7 -12 8 -4 -7 -25 3 -6 5 -2 0 -6 2 1 1 -0 2 3 1 3 -1 -0 -0 -0 0 -1 0 -1 0 -1 -1 1 -0 -0 0 -0
1 -29 23 0 0 -12 -2 -20 19 -5 1 -9 2 -1 -1 -5 -6 -2 1 6 5 -1 5 1 3 3 2 -1 -0 -0 0 -1 1 -1 0 -1 0 -0 1 0 -0 -0 0 -1
4 -47 31 1 6 -9 -1 28 -5 16 -19 -9 1 -3 -17 -19 -4 -3 3 1 3 -1 1 3 1 3 3 1 1 -0 -0 0 -1 -1 -0 0 -1 1 2 -0 1 -2 -1 -1
3 -16 -15 -17 33 0 28 -3 -1 -3 38 -19 3 -11 26 13 -4 -2 1 6 10 -1 3 2 4 3 3 2 2 0 2 0 -1 0 0 1 0 1 -0 -1 0 -1 -1 1
16 -7 -29 24 15 12 12 -3 -4 88 18 -6 11 10 -4 -4 -1 -2 -11 -0 10 1 1 1 2 2 2 3 1 1 1 1 -1 1 -0 1 -0 -0 -1 -1 -1 -3 0 -1
2 6 -20 -1 8 17 -11 -3 0 -13 3 45 13 3 0 10 0 -9 -11 8 7 3 5 3 3 2 1 3 2 1 1 1 -0 0 0 1 -1 0 -2 -2 -1 -0 -2 -0
-4 2 -2 -1 -0 -1 -5 0 -0 -3 6 -20 44 -1 57 -12 -7 -2 -11 8 1 2 2 2 0 1 2 3 2 0 1 1 1 1 1 2 -1 0 -3 -1 -3 -0 -1 0
-4 -4 3 4 -8 -3 8 -5 4 -6 3 -8 16 44 40 1 -9 7 -6 11 -3 -1 1 2 5 2 4 4 3 2 1 1 1 -0 -0 2 -0 0 -3 -2 -3 -1 -1 0
-1 -1 2 -3 -9 -2 -3 3 0 0 3 -14 -7 28 16 12 -3 5 23 8 6 -2 6 13 11 8 8 6 2 2 2 1 1 -1 -1 2 0 1 -4 -1 -2 -1 -2 0
-3 -2 2 -12 -2 -3 -12 2 -5 4 8 -7 -8 22 -10 -10 2 -1 0 12 8 6 -4 -1 -2 1 2 4 5 3 2 1 0 -1 -2 3 0 1 -5 -1 -0 -1 -1 -0
0 -2 1 -7 -0 -12 9 1 -1 -9 -10 -17 -10 15 20 3 7 -7 0 12 0 14 5 -0 -0 0 3 3 3 2 3 2 1 1 -2 2 0 2 -4 -1 -1 -1 -1 -2
-3 -1 -5 -7 -2 -2 -2 2 2 -3 1 -3 -1 11 0 31 5 -5 5 5 14 -2 11 5 0 1 3 3 2 3 1 -0 1 0 -2 1 0 2 -2 -2 -2 -1 -1 -1
4 -2 -6 -1 -1 -10 -1 -2 4 2 -12 -9 -3 4 3 6 1 -9 -2 0 2 9 8 7 2 0 3 2 3 2 0 1 1 1 -2 0 1 2 -1 -1 -1 -1 -1 -3
7 4 -1 5 7 -6 10 13 9 1 10 -4 -6 -12 -9 1 -1 6 3 6 -1 -1 2 7 4 4 2 1 0 1 1 2 3 2 -3 -0 1 2 -0 0 -0 -1 0 -0
3 -0 4 3 -2 2 3 17 -1 10 1 2 -9 0 -1 -5 1 14 2 0 2 -4 -2 1 -1 3 1 4 0 -0 1 2 3 3 -2 -1 1 2 0 -1 -0 -1 -2 -1
-0 16 -5 4 6 0 16 11 -0 -5 1 -0 2 -1 4 -4 2 17 3 0 2 -1 -2 -0 -0 3 -1 4 -1 0 3 1 2 3 -2 -2 2 1 1 -1 0 0 -2 -2
3 -6 -5 -2 8 -1 6 2 0 -4 -1 -0 -3 2 5 -3 3 3 -4 -0 5 -0 0 3 0 2 0 1 -0 -0 2 2 2 2 1 -2 2 -0 1 -0 0 0 -1 -1
-1 3 -1 3 2 -4 1 5 3 -2 -1 1 -0 2 4 0 -5 1 -2 -2 0 -2 -1 2 1 1 -2 0 1 1 0 2 1 2 2 0 1 -0 1 1 1 0 1 -0
5 -5 -2 -0 7 5 0 7 3 -7 -4 -5 -2 -1 3 3 0 1 0 -1 1 -1 -0 -2 -0 3 -1 1 1 2 1 3 1 1 2 2 1 1 1 -1 1 1 -0 1
Height
5768 5766 5768 5766 5761 5761 5760 5758 5759 5759 5757 5755 5757 5757 5759 5759 5761 5765 5766 5767 5769 5771 5771 5772 5775 5777 5779 5781 5782 5783 5784 5784 5785 5785 5786 5784 5783 5783 5781 5780 5778 5776 5773 5772
5756 5757 5758 5754 5751 5751 5748 5748 5751 5750 5747 5745 5746 5748 5748 5753 5753 5756 5756 5758 5761 5762 5763 5765 5769 5770 5773 5774 5776 5777 5777 5778 5778 5778 5777 5777 5776 5774 5773 5773 5770 5767 5765 5764
5744 5746 5743 5743 5742 5737 5739 5737 5738 5737 5735 5734 5736 5738 5740 5743 5744 5748 5748 5749 5752 5755 5756 5757 5762 5763 5765 5767 5769 5770 5771 5771 5771 5770 5770 5769 5769 5769 5767 5765 5761 5759 5758 5756
5734 5736 5732 5731 5730 5726 5728 5726 5726 5726 5725 5724 5723 5725 5730 5732 5739 5739 5740 5741 5744 5747 5748 5749 5755 5756 5758 5759 5762 5763 5764 5764 5764 5764 5764 5764 5763 5763 5760 5756 5753 5753 5751 5749
5727 5725 5725 5724 5724 5718 5721 5716 5716 5715 5714 5714 5717 5714 5723 5725 5727 5732 5728 5732 5735 5738 5740 5740 5746 5748 5750 5753 5755 5757 5757 5757 5758 5758 5758 5758 5757 5755 5751 5749 5747 5746 5744 5743
5716 5715 5715 5716 5713 5711 5711 5707 5707 5707 5706 5705 5709 5704 5712 5712 5713 5721 5717 5720 5725 5729 5733 5733 5738 5741 5743 5745 5748 5750 5751 5751 5751 5752 5752 5752 5750 5748 5745 5742 5741 5739 5737 5735
5701 5704 5706 5704 5704 5703 5701 5699 5698 5696 5698 5697 5698 5693 5702 5703 5700 5708 5707 5710 5717 5721 5724 5727 5730 5733 5736 5738 5742 5744 5745 5746 5745 5746 5746 5746 5744 5741 5737 5735 5734 5732 5730 5729
5685 5690 5697 5694 5690 5692 5691 5691 5688 5687 5689 5689 5686 5684 5692 5691 5693 5693 5697 5699 5707 5712 5716 5719 5722 5726 5730 5732 5734 5737 5739 5740 5740 5740 5740 5739 5737 5734 5731 5729 5728 5726 5724 5722
5667 5671 5684 5675 5673 5677 5682 5674 5684 5675 5676 5673 5678 5678 5681 5681 5683 5684 5685 5691 5696 5702 5706 5710 5714 5718 5722 5725 5728 5732 5733 5735 5735 5735 5734 5733 5731 5729 5727 5724 5722 5720 5718 5717
5649 5647 5664 5663 5654 5661 5659 5667 5666 5666 5659 5662 5666 5671 5671 5670 5674 5676 5677 5680 5685 5692 5697 5702 5707 5711 5716 5719 5722 5726 5728 5730 5730 5730 5730 5728 5727 5725 5722 5719 5716 5714 5713 5712
5624 5621 5642 5631 5641 5637 5644 5643 5648 5651 5647 5648 5657 5664 5667 5667 5666 5668 5669 5672 5674 5682 5689 5694 5699 5704 5709 5713 5717 5720 5722 5724 5726 5726 5726 5724 5723 5721 5717 5714 5712 5710 5709 5707
5602 5593 5599 5607 5612 5614 5620 5621 5632 5625 5633 5635 5646 5658 5651 5659 5658 5660 5660 5662 5666 5672 5679 5686 5692 5697 5702 5706 5711 5714 5717 5719 5721 5722 5722 5721 5719 5716 5713 5711 5708 5706 5704 5702
5581 5579 5574 5584 5590 5599 5599 5604 5612 5617 5613 5623 5632 5644 5643 5647 5647 5651 5652 5653 5658 5664 5671 5678 5684 5688 5694 5700 5704 5708 5711 5714 5717 5718 5718 5718 5716 5713 5710 5707 5705 5703 5702 5699
5562 5562 5563 5563 5568 5579 5578 5588 5594 5600 5602 5609 5616 5632 5633 5627 5636 5643 5646 5647 5651 5657 5664 5670 5676 5683 5689 5694 5699 5703 5707 5710 5712 5714 5715 5714 5712 5710 5708 5705 5703 5701 5700 5697
5550 5549 5549 5547 5550 5559 5566 5573 5579 5583 5589 5595 5609 5613 5606 5620 5628 5638 5639 5642 5646 5652 5659 5664 5672 5679 5684 5688 5694 5699 5702 5705 5708 5711 5712 5712 5710 5709 5707 5705 5702 5700 5699 5698
5539 5538 5537 5535 5539 5542 5546 5557 5562 5567 5574 5581 5590 5598 5605 5612 5622 5633 5634 5638 5642 5646 5654 5662 5668 5674 5680 5685 5690 5694 5697 5700 5704 5707 5708 5709 5708 5707 5707 5704 5701 5700 5699 5699
5529 5529 5529 5527 5531 5529 5529 5545 5552 5557 5562 5569 5578 5592 5599 5607 5616 5624 5630 5634 5637 5642 5645 5652 5660 5669 5676 5681 5685 5689 5692 5696 5700 5704 5705 5706 5706 5706 5706 5704 5702 5700 5700 5700
5523 5523 5522 5520 5521 5517 5526 5531 5538 5544 5548 5557 5571 5583 5590 5600 5608 5614 5621 5630 5633 5638 5642 5647 5654 5662 5670 5676 5680 5684 5688 5692 5696 5699 5702 5703 5704 5705 5705 5705 5703 5702 5701 5701
5517 5518 5516 5514 5513 5512 5517 5523 5527 5532 5539 5547 5559 5572 5580 5589 5599 5606 5613 5620 5628 5632 5638 5643 5649 5656 5664 5670 5675 5680 5684 5688 5692 5695 5698 5700 5702 5703 5704 5704 5704 5704 5704 5703
5515 5515 5514 5513 5510 5509 5515 5517 5522 5526 5528 5536 5549 5565 5571 5579 5591 5596 5605 5612 5618 5627 5633 5639 5644 5651 5658 5664 5669 5675 5680 5685 5688 5691 5695 5697 5699 5701 5702 5703 5704 5704 5705 5706
5514 5513 5511 5510 5509 5510 5512 5515 5518 5521 5531 5530 5539 5555 5565 5574 5582 5589 5598 5604 5610 5619 5626 5632 5639 5646 5653 5659 5665 5671 5676 5681 5685 5688 5691 5694 5697 5699 5701 5702 5703 5703 5704 5705
5511 5511 5509 5508 5507 5509 5510 5513 5518 5521 5521 5525 5530 5547 5557 5565 5574 5578 5587 5597 5603 5611 5619 5627 5633 5641 5647 5654 5661 5667 5672 5677 5681 5685 5688 5691 5695 5697 5698 5700 5701 5702 5703 5704
5507 5507 5505 5505 5505 5505 5509 5510 5511 5512 5515 5518 5524 5535 5545 5555 5564 5571 5579 5588 5596 5603 5612 5620 5627 5635 5642 5649 5655 5663 5668 5673 5678 5681 5685 5689 5692 5695 5696 5698 5700 5701 5702 5703
5501 5500 5500 5499 5502 5501 5502 5505 5507 5510 5512 5514 5519 5526 5534 5544 5555 5565 5572 5581 5589 5597 5606 5614 5622 5629 5637 5644 5651 5657 5664 5669 5674 5678 5682 5686 5689 5693 5694 5696 5698 5700 5701 5702
5496 5495 5493 5493 5495 5496 5499 5502 5503 5505 5507 5511 5514 5519 5524 5533 5545 5557 5566 5575 5583 5591 5599 5608 5616 5624 5632 5639 5646 5653 5659 5665 5671 5675 5679 5683 5687 5690 5692 5694 5697 5698 5700 5701
5491 5490 5488 5488 5489 5493 5495 5499 5499 5503 5505 5508 5513 5516 5519 5524 5534 5547 5558 5568 5576 5585 5592 5601 5610 5619 5627 5635 5642 5648 5656 5661 5667 5672 5675 5680 5684 5688 5690 5691 5694 5696 5699 5700